Regional Weather Roundup
Issued by NWS

Home | Current Version | Previous Version | Text Only | Print | Product List | Glossary Off
Versions: 1 2 3 4 5 6 7 8 9 10 11 12 13 14 15 16 17 18 19 20 21 22 23 24 25 26 27

000
ASUS45 KBOU 281307
RWRCO

WEATHER ROUNDUP FOR COLORADO
NATIONAL WEATHER SERVICE DENVER/BOULDER CO
700 AM MDT THU JUL 28 2016

NOTE: "FAIR" INDICATES FEW OR NO CLOUDS BELOW 12000 FEET WITH NO
SIGNIFICANT WEATHER AND/OR OBSTRUCTIONS TO VISIBILITY.

COZ001>005-013-030-031-281400-
...NORTHWEST COLORADO...

CITY           SKY/WX    TMP DP  RH WIND       PRES   REMARKS
CRAIG          FAIR      46  34  62 VRB5      30.29R
HAYDEN         FAIR      54  27  35 E9        30.29S
MEEKER         FAIR      49  35  58 NE7       30.29S
MOUNT WERNER   NOT AVBL
STEAMBOAT SPGS FAIR      46  32  57 CALM      30.33R
WALDEN         FAIR      37  30  75 SE8       30.40S
$$

COZ006>008-011-281400-
...WEST CENTRAL VALLEYS...

CITY           SKY/WX    TMP DP  RH WIND       PRES   REMARKS
GRAND JUNCTION FAIR      68  34  28 S7        30.13R
MONTROSE       FAIR      65  35  33 SE12      30.23S
EAGLE          FAIR      48  34  57 SE3       30.36R
RIFLE          FAIR      56  34  43 N3        30.23R
DELTA          NOT AVBL
NUCLA          NOT AVBL
$$

COZ017>023-064>068-281400-
...SOUTHWEST COLORADO...

CITY           SKY/WX    TMP DP  RH WIND       PRES   REMARKS
DURANGO        FAIR      59  40  49 CALM      30.33R
CORTEZ         FAIR      55  40  56 CALM      30.25R
PAGOSA SPRINGS FAIR      56  39  53 CALM      30.44R
TELLURIDE      FAIR      57  29  34 SE7       30.53R
WOLF CREEK PAS FAIR      50  36  57 SW17      30.76R
$$

COZ009-010-012-014-032>034-037-058>063-281400-
...CENTRAL COLORADO...

CITY           SKY/WX    TMP DP  RH WIND       PRES   REMARKS
ASPEN          FAIR      50  33  52 VRB3      30.38R
BUENA VISTA    FAIR      52  31  44 NW5       30.42S
COPPER MTN     FAIR      55  19  24 NW9       30.71R
BERTHOUD PASS  FAIR      46  32  57 NW29G35   30.70S
COTTONWOOD PAS FAIR      63  27  25 SE7       30.54S
GUNNISON       FAIR      45  34  65 N3        30.47R
KREMMLING      FAIR      41  34  75 CALM      30.42R
LEADVILLE      FAIR      43  26  51 CALM      30.53R
MONARCH PASS   FAIR      50  34  53 S16       30.81S
SALIDA         FAIR      57  34  40 N6        30.46R
SUNLIGHT       NOT AVBL
WILKERSON PASS FAIR      52  34  50 SW8       30.67S
$$

COZ069>075-281400-
...SAN LUIS VALLEY/SANGRE DE CRISTO MOUNTAINS...

CITY           SKY/WX    TMP DP  RH WIND       PRES   REMARKS
ALAMOSA        FAIR      54  42  64 CALM      30.40R
LA VETA PASS   FAIR      54  41  62 S12G18    30.57R
SAGUACHE       NOT AVBL
$$

COZ035-036-038>040-281400-
...NORTHERN COLORADO FRONT RANGE...

CITY           SKY/WX    TMP DP  RH WIND       PRES   REMARKS
DENVER INTL AP FAIR      61  55  81 SW5       30.18R
DMNS CITY PARK   N/A     66  59  77 N2        30.18R
AURORA         MOSUNNY   64  57  78 N7        30.20R
FRONT RANGE AP MOSUNNY   64  57  77 S5        30.17
ERIE MUNI ARPT FAIR      61  58  91 CALM      30.16S
BOULDER MUN AP FAIR      63  59  88 CALM      30.16S
CENTENNIAL     FAIR      65  53  65 S13       30.17F
BROOMFIELD     MOSUNNY   63  57  82 CALM      30.20R
LONGMONT       NOT AVBL
$$

COZ041-046-047-076>085-087-088-281400-
...PIKES PEAK/PALMER DIVIDE AND SOUTHERN FOOTHILLS...

CITY           SKY/WX    TMP DP  RH WIND       PRES   REMARKS
COLO. SPRINGS  FAIR      63  54  72 E7        30.28R
A. F. ACADEMY  FAIR      55  51  86 N6        30.27S
SCHRIEVER AFB  NOT AVBL
ELLICOTT       FAIR     N/A N/A N/A E15       30.25R
FALCON         NOT AVBL
FORT CARSON    FAIR      61  54  76 CALM      30.24R
LIMON          FAIR      58  56  93 S9        30.23S
MONUMENT HILL  FAIR      57  52  82 S8        30.30S
TRINIDAD       NOT AVBL
$$

COZ042>045-048>051-090-091-281400-
...NORTHEAST COLORADO...

CITY           SKY/WX    TMP DP  RH WIND       PRES   REMARKS
GREELEY ARPT   PTSUNNY   61  59  94 CALM      30.15R
AKRON          FAIR      61  54  77 S15       30.14S
BURLINGTON     FAIR      64  53  67 SE20      30.13F
WRAY           FAIR      64  55  72 CALM      30.12R
STERLING       NOT AVBL
HOLYOKE        NOT AVBL
FORT MORGAN    NOT AVBL
$$

COZ086-089-092>099-281400-
...SOUTHEAST COLORADO...

CITY           SKY/WX    TMP DP  RH WIND       PRES   REMARKS
PUEBLO         FAIR      68  57  68 N6        30.18R
LA JUNTA       FAIR      66  60  81 E14       30.16R
LAMAR          FAIR      68  61  78 E15       30.15S
SPRINGFIELD      N/A     63  58  83 SE7       30.20R
$$




USA.gov is the U.S. government's official web portal to all federal, state and local government web resources and services.